Location: Unspecified
(0.0000°N, 0.0000°E)
Time: 18:07:37
(UTC+00:00)

STARLINK 1058 - Pass Details

Date: 22 January 2020
Orbit: 548 x 551 km, 53.0° (Epoch: 17 January)

Event Time Altitude Azimuth Distance (km) Brightness Sun altitude
Rises 03:41:48 0° 179° (S) 2,714 7.5 -34.8°
Reaches altitude 10° 03:45:35 10° 144° (SE) 1,818 6.9 -34.0°
Maximum altitude 03:46:52 11° 125° (SE) 1,737 6.9 -33.7°
Drops below altitude 10° 03:48:10 10° 107° (ESE) 1,815 7.1 -33.4°
Sets 03:51:55 0° 72° (ENE) 2,704 7.8 -32.5°
